Theta_e
352 352 348 345 347 347 345 341 341 335 343 347 348 348 346 347 347 344 342 338 340 338 341 331 334 336 334 334 333 332 330 331 334 334 334 334 335 335 336 334 335 336 333
352 353 349 346 349 348 346 345 342 345 339 344 345 347 347 349 347 343 342 342 341 343 342 335 335 334 335 336 335 329 332 330 332 334 333 330 331 333 334 336 336 336 336
349 348 349 346 347 348 347 346 345 344 346 347 347 346 351 347 347 345 343 339 341 341 342 337 333 335 334 334 335 333 329 332 331 331 332 332 330 332 334 333 332 332 332
352 353 351 347 349 348 347 348 346 350 348 348 350 348 349 348 350 348 347 346 347 342 341 341 337 331 334 334 334 333 333 331 334 334 331 331 331 331 331 330 330 331 332
351 350 353 347 351 350 348 349 348 346 347 350 351 349 349 350 349 349 348 348 348 348 344 342 340 333 333 333 335 335 334 335 332 333 335 334 334 334 333 334 333 333 333
344 353 352 349 351 350 347 349 351 349 348 350 352 350 351 350 350 349 349 349 350 348 347 342 339 335 333 331 333 335 335 335 333 334 332 333 335 336 335 332 333 334 334
346 350 356 351 353 351 350 349 351 350 350 352 350 352 352 350 349 349 348 349 347 347 346 345 342 343 343 341 334 335 337 336 337 336 333 328 331 332 332 333 333 333 336
353 350 352 353 351 348 350 351 350 351 352 352 351 351 348 351 351 351 351 350 348 346 346 346 346 344 342 341 342 341 334 333 334 335 332 330 331 334 334 333 332 332 333
351 352 350 352 347 354 351 351 351 352 352 351 352 351 349 347 345 351 352 351 351 348 348 347 346 347 345 343 343 340 339 335 335 335 334 334 335 335 334 331 330 333 335
351 353 349 346 348 354 352 350 352 351 351 350 352 352 349 351 343 338 347 352 351 349 349 349 347 347 346 345 344 343 344 341 338 335 337 335 335 335 331 334 338 340 341
352 352 351 353 343 352 351 354 352 349 350 351 352 352 349 355 353 351 348 349 337 349 351 349 346 343 347 346 345 346 341 342 341 341 338 338 339 341 341 341 338 336 335
351 355 346 347 346 355 354 351 353 350 352 350 353 349 352 352 352 351 352 350 348 346 349 350 350 349 349 348 347 348 345 337 337 340 341 341 340 335 332 331 330 328 325
355 355 351 343 351 346 356 352 352 351 348 349 349 352 353 352 351 349 349 349 349 349 347 344 347 351 350 348 347 338 346 342 335 336 336 335 332 333 332 327 320 317 314
354 358 352 343 356 351 347 352 355 346 350 346 348 349 355 354 352 349 348 348 345 347 347 349 351 352 349 347 345 346 345 340 336 334 333 333 333 332 327 322 317 312 310
355 351 347 347 353 353 349 348 349 354 351 355 353 350 343 348 350 348 347 347 345 345 347 346 350 350 347 344 343 344 345 341 340 336 334 334 333 330 326 319 314 315 316
352 354 342 348 353 347 347 352 351 355 347 344 344 349 351 347 349 349 347 346 344 344 346 347 345 347 347 344 339 342 342 343 341 338 336 335 334 329 323 318 317 319 319
354 356 353 357 353 346 349 348 350 357 358 354 344 351 351 349 345 352 350 348 345 346 346 347 347 348 347 345 341 342 342 341 341 339 337 335 334 329 323 319 319 321 321
341 349 350 349 350 353 353 352 347 348 354 356 351 345 349 347 343 344 348 350 348 348 347 346 346 342 345 346 342 340 342 342 341 341 337 336 335 330 323 319 320 321 322
342 345 345 344 344 350 353 355 355 349 349 354 354 352 348 351 352 352 355 354 349 351 349 346 345 343 343 345 343 339 339 342 342 338 336 336 335 330 325 320 320 321 321
355 350 350 358 357 354 352 352 354 356 353 348 355 358 357 354 354 354 355 354 354 352 351 350 347 343 346 345 341 340 336 341 340 339 337 337 336 332 328 322 320 321 321
359 358 357 355 355 354 353 351 346 351 354 356 350 350 351 351 350 351 355 354 355 353 350 350 348 345 345 341 340 340 337 336 339 339 338 336 333 328 320 318 318 320 321
356 357 361 360 358 353 337 343 341 340 342 349 349 341 350 350 351 351 350 351 353 352 349 348 348 346 343 339 337 339 337 335 336 338 335 336 333 329 327 326 326 326 321
355 354 353 355 356 348 346 343 345 346 346 346 345 348 348 347 349 350 350 351 350 349 349 349 348 345 343 341 339 339 338 334 336 335 338 336 331 329 328 327 327 327 327
353 354 352 348 343 343 345 346 347 344 342 342 344 345 347 349 347 344 345 344 344 346 341 341 345 345 344 341 339 339 336 333 336 337 336 335 331 330 328 327 326 327 326
349 347 346 344 345 345 343 341 339 339 339 338 339 345 348 349 350 350 348 343 340 340 342 340 346 345 343 341 341 338 335 335 337 334 334 331 331 330 326 328 328 328 324
347 350 347 343 340 341 344 345 345 343 339 337 341 346 347 351 348 345 340 341 342 343 345 349 348 344 343 342 341 337 334 337 336 334 332 331 330 327 329 327 328 326 324
Wind_Speed
2 8 15 14 7 3 1 11 11 15 14 13 4 4 7 3 3 5 11 10 9 12 13 15 15 13 12 11 9 8 8 9 9 9 8 8 7 7 7 6 6 6 5
8 10 13 14 6 2 2 11 11 12 11 9 6 9 8 8 3 2 6 9 9 7 8 18 16 15 14 13 11 10 10 10 10 9 9 9 9 7 6 5 5 5 6
7 9 8 12 6 1 6 9 10 13 13 11 6 10 8 11 6 7 3 4 5 7 7 14 18 16 15 14 13 12 12 11 10 11 9 8 8 8 6 6 5 6 6
7 6 9 10 5 3 9 9 12 12 12 12 10 9 9 9 10 6 7 7 5 7 9 8 20 19 17 16 15 14 13 12 12 11 10 10 8 7 7 4 5 7 8
6 4 7 12 6 5 9 12 10 9 10 11 8 7 9 8 8 6 5 6 7 9 4 6 21 20 19 17 17 16 14 14 13 12 11 9 10 8 9 8 9 11 9
9 4 5 7 5 5 12 12 12 9 9 7 11 5 8 10 7 8 8 6 4 6 8 4 12 17 17 19 19 18 17 16 14 13 12 12 12 12 12 12 12 11 14
7 7 1 8 5 3 10 12 11 9 6 7 6 10 5 5 3 4 5 7 5 3 3 7 7 10 14 17 22 20 19 17 16 15 14 14 15 14 14 14 13 13 11
1 2 1 2 2 3 11 13 12 9 5 6 7 7 5 11 9 6 9 9 4 4 3 5 4 4 7 11 16 21 21 19 18 17 16 16 16 16 15 14 14 14 13
2 2 2 4 2 5 7 11 11 7 7 6 5 1 3 5 3 15 14 10 11 6 8 7 4 5 6 10 11 16 20 20 18 17 17 16 16 16 16 17 17 17 18
4 4 2 4 8 7 4 8 6 7 11 9 3 1 5 6 17 7 10 19 12 7 10 9 10 6 5 7 9 6 10 18 19 19 17 16 16 17 17 19 18 17 17
9 6 5 5 7 9 6 6 8 8 9 9 6 5 4 3 5 7 7 9 23 14 16 16 11 10 11 5 8 7 6 9 15 18 18 17 16 14 13 12 12 13 13
10 10 4 4 6 6 6 9 8 9 10 10 6 6 3 5 6 7 8 3 4 4 6 7 12 9 4 6 15 10 8 7 12 14 15 14 11 9 9 9 10 11 12
8 16 7 1 2 10 9 7 7 9 11 11 10 9 4 5 5 7 5 8 3 3 5 2 3 6 7 5 14 8 12 11 11 10 10 10 9 9 9 9 9 10 10
18 10 9 5 8 8 11 10 11 6 4 9 12 14 9 8 5 6 7 8 7 6 6 1 3 6 5 14 13 9 11 12 11 9 9 9 9 9 9 8 8 7 6
17 12 8 10 11 13 8 9 11 12 13 12 15 12 13 12 5 9 8 8 8 6 6 3 5 12 7 10 13 14 13 13 11 11 10 9 9 8 8 7 6 4 3
17 10 11 14 15 15 13 12 12 12 10 14 14 9 13 10 10 12 12 11 11 7 7 5 7 10 10 9 10 14 15 13 12 14 12 11 10 8 7 6 4 3 2
18 17 17 15 19 18 16 15 13 16 18 18 14 19 19 16 16 14 11 13 11 9 10 6 7 11 13 11 8 8 13 13 14 15 15 13 11 9 8 6 5 4 2
20 23 21 21 21 21 20 19 18 18 21 20 19 19 24 21 18 17 18 17 14 15 16 13 13 13 14 9 8 11 12 15 13 15 16 15 13 10 8 8 7 5 4
20 21 20 20 20 21 20 22 23 22 24 26 24 23 23 22 22 22 17 18 18 19 18 20 17 12 15 14 11 10 14 15 15 8 7 10 13 11 10 10 9 8 7
23 21 22 21 21 20 20 22 25 29 29 28 28 27 26 25 27 25 24 24 24 19 18 21 15 11 16 16 15 13 10 16 17 19 15 13 11 12 12 13 12 11 9
23 23 20 19 20 18 18 23 24 36 35 32 25 25 27 27 28 30 30 28 27 26 27 26 18 17 20 18 20 16 11 13 16 19 16 14 10 10 10 14 13 12 10
25 19 18 21 21 21 22 23 26 21 26 28 23 22 22 28 30 31 30 30 30 26 26 29 24 25 17 17 20 18 15 14 17 17 16 17 13 11 6 3 7 8 10
22 21 20 24 18 12 16 22 21 24 26 28 28 28 30 27 27 28 29 28 23 26 27 34 30 26 21 22 17 18 19 16 19 18 23 16 15 12 10 9 9 13 12
20 17 18 18 21 23 17 15 17 19 24 27 29 29 30 32 34 36 32 30 28 25 29 25 27 28 24 21 19 19 18 16 15 18 22 19 18 14 13 10 6 4 7
11 14 15 16 17 19 18 18 17 17 19 19 15 13 16 17 19 23 21 24 27 24 25 22 30 28 22 19 18 16 18 18 19 17 20 17 11 13 11 8 6 6 8
7 12 12 16 17 16 15 15 14 17 18 18 12 12 16 16 20 19 18 20 22 22 19 22 27 21 16 19 18 14 11 16 19 14 20 16 16 14 12 6 7 8 6
Wind_Direction
38 359 336 353 348 359 90 172 169 172 185 153 188 227 183 209 199 195 208 200 197 209 217 201 191 183 181 184 183 185 181 183 188 179 176 173 172 181 180 184 189 189 199
21 337 340 344 351 326 157 172 174 172 160 154 186 190 190 195 206 221 188 209 221 221 210 196 197 194 191 190 191 193 192 188 189 191 188 189 191 197 191 196 207 211 211
352 336 342 350 350 253 171 160 172 163 149 182 196 184 183 199 217 208 205 203 199 206 189 208 207 204 201 200 196 197 196 197 195 194 197 194 194 199 201 208 217 221 232
359 353 9 11 47 163 180 162 173 171 178 176 188 176 184 184 208 215 233 245 276 241 240 264 210 210 211 209 207 201 203 202 205 199 198 203 202 204 215 225 266 263 252
30 353 37 2 54 61 164 161 171 182 154 165 177 181 199 195 204 229 234 250 262 266 291 307 195 209 211 212 214 210 210 210 210 210 211 206 214 218 219 242 266 264 267
45 47 43 50 61 78 154 145 152 149 144 143 190 169 188 187 217 222 231 241 234 294 272 222 202 218 223 223 219 216 216 216 217 215 220 220 224 229 233 242 257 263 263
51 46 62 40 40 63 153 149 146 154 173 190 251 182 201 216 232 255 225 225 253 233 265 262 228 229 231 230 226 222 220 221 222 222 228 226 229 236 243 249 253 266 275
331 131 272 87 120 92 150 148 152 164 169 218 195 204 206 208 207 209 227 240 207 220 221 221 210 231 245 236 226 224 223 225 226 227 229 228 233 239 247 255 260 265 267
206 269 241 213 193 143 153 169 159 172 186 209 244 195 191 67 337 241 218 225 204 209 210 205 209 247 278 256 224 224 224 227 227 229 231 233 240 247 252 256 260 262 265
234 236 256 240 190 152 169 160 188 183 179 179 205 188 285 160 172 198 224 210 198 242 221 204 243 231 253 263 264 260 240 232 229 229 233 238 244 250 255 259 262 261 261
198 255 273 232 197 165 183 192 206 195 191 194 195 205 243 233 261 304 163 168 47 234 224 210 200 231 230 214 233 238 297 257 235 231 233 239 249 254 252 249 249 250 253
194 185 269 252 225 198 213 201 212 206 194 194 193 185 249 237 248 294 275 162 334 27 179 266 255 292 229 248 210 227 263 261 242 230 233 238 239 237 242 248 253 258 262
241 210 191 359 276 210 213 223 214 203 201 209 210 198 216 252 289 291 325 341 308 224 221 291 310 226 194 253 250 221 222 257 246 232 226 223 227 236 248 261 270 274 276
263 189 166 177 213 251 215 223 208 218 233 234 228 227 215 204 249 275 281 298 304 350 321 165 178 247 223 222 249 248 225 239 240 233 226 225 234 247 256 268 275 277 269
269 295 228 246 209 238 231 207 193 217 221 235 243 247 240 228 225 266 259 262 266 283 320 318 221 249 266 259 258 253 240 242 241 236 231 236 240 250 263 272 273 269 272
256 255 248 222 241 240 233 224 187 217 239 235 236 228 252 228 225 259 253 246 256 257 288 256 241 258 275 308 254 246 249 247 240 232 230 234 242 256 264 263 252 227 204
218 253 259 222 237 244 247 243 220 212 236 243 224 218 236 246 222 210 249 257 231 251 250 252 216 249 275 307 270 268 252 239 231 233 230 230 236 248 247 242 230 222 212
221 229 242 241 243 248 251 255 254 236 243 245 246 229 230 244 243 234 224 223 235 235 238 238 249 269 274 285 294 255 267 248 244 246 236 234 233 241 239 236 231 233 246
236 232 241 247 252 255 258 263 267 263 252 250 250 253 250 246 248 254 250 248 239 247 250 250 247 255 252 262 276 283 248 220 237 256 255 237 241 245 239 236 237 245 257
260 253 241 247 264 268 269 271 274 270 263 262 257 260 262 259 256 256 252 247 241 237 239 243 249 227 235 250 266 271 246 223 209 228 238 258 267 253 246 240 239 247 263
259 265 266 258 252 262 286 300 311 285 268 261 259 267 268 266 265 264 258 254 249 242 240 245 243 217 228 241 254 265 255 220 220 223 229 236 244 242 257 249 242 250 258
244 252 252 257 254 255 286 271 295 274 267 279 277 265 267 271 268 271 273 271 265 256 248 250 241 226 230 256 270 252 242 215 219 217 220 240 234 234 271 251 258 253 243
255 252 258 261 265 268 278 273 272 273 276 275 271 266 271 278 282 276 275 281 283 270 272 258 259 260 277 273 258 236 225 227 218 219 208 216 224 250 259 264 275 239 240
266 268 260 269 277 287 291 290 285 282 279 278 273 270 277 279 279 281 277 279 287 282 286 295 271 264 263 254 246 234 234 231 223 201 195 223 214 219 225 262 253 249 271
292 287 291 296 296 294 294 292 287 286 286 286 287 295 304 305 292 292 279 273 282 282 278 266 254 241 248 242 234 225 226 223 201 186 186 206 196 209 225 222 246 280 320
331 311 304 305 314 320 317 310 313 311 304 297 292 306 297 290 296 300 282 272 275 278 279 258 247 232 245 226 225 219 213 210 193 188 199 201 188 184 175 217 241 265 285